Location: Chagrin Falls Park
(41.4139°N, 81.3865°W)
Time: 23:29:32
(UTC+00:00)

CZ-4 R/B - Pass Details

Date: 29 October 2020
Orbit: 532 x 598 km, 97.7° (Epoch: 29 November)

Event Time Altitude Azimuth Distance (km) Brightness Sun altitude
Rises 23:45:51 0° 158° (SSE) 2,699 4.7 -15.9°
Reaches altitude 10° 23:47:59 10° 155° (SSE) 1,802 3.7 -16.3°
Maximum altitude 23:51:49 62° 75° (ENE) 609 1.2 -17.0°
Drops below altitude 10° 23:55:39 10° 355° (N) 1,795 4.0 -17.8°
Sets 23:57:46 0° 352° (N) 2,688 4.9 -18.2°
